Погода в Агартале

Индия     23°49′42″N   91°16′23″E
темп.,
°C
ветер,
м/с
пор.,
м/с
влажн.,
%
обл.,
%
осадки,
мм/ч
давл.,
гПа
погр.,
м
26 февраля, пт
пт2623:30+18ююв23920 0.0 100853
02:30+17ююв35940 0.0 1007117
05:30+17ююв49960 0.0 1008229
08:30+25ю356914 0.0 1009575
11:30+34юз46257 0.0 10082124
14:30+35зюз47170 0.0 10043407
17:30+28ююз25300 0.0 100589
20:30+21ююв38840 0.0 1008206
27 февраля, сб
сб2723:30+19ююв23960 0.0 100782
02:30+19ююв37986 0.0 1006199
05:30+18вюв229815 0.0 100658
08:30+23ююв478090 0.0 1009467
11:30+32ю443758 0.0 10071076
14:30+35юз35192 0.0 10053614
17:30+27зюз12284 0.0 100525
20:30+21ю410920 0.0 1008259
28 февраля, вс
вс2823:30+20юв24981 0.0 1008110
02:30+20ююв489930 0.0 1007248
05:30+22ю479355 0.0 1008443
08:30+26ю357496 0.0 1010617
11:30+34ююз352951 0.0 10081641
14:30+36зюз56190 0.0 10053412
17:30+29ююв22270 0.0 100524
20:30+22ю37710 0.0 1008174
1 марта, пн
пн123:30+20ю35860 0.0 1009110
02:30+19ююв36950 0.0 1008124
05:30+19ююв37960 0.0 1009175
08:30+26ююз34611 0.0 1012511
11:30+35юз45251 0.0 10111679
14:30+36з48160 0.0 10083577
17:30+30з23230 0.0 100824
20:30+23ю39700 0.0 1010211
2 марта, вт
вт223:30+20ю33840 0.0 101164
02:30+19ююв47890 0.0 1010116
05:30+18ююв38950 0.0 1010161
08:30+27ююз35570 0.0 1012599
11:30+35юз45250 0.0 10111572
14:30+36юз57200 0.0 10083604
17:30+30ю6114523 0.0 1007452
20:30+24ю5117216 0.0 1010331